Weather History for Sitka, AK

Change the Weather History Date:

Tuesday, July 23, 2013

  Actual Average Record
Temperature  
Mean Temperature 59 °F -  
Max Temperature 68 °F 61 °F 72 °F (1988)
Min Temperature 54 °F 52 °F 46 °F (1971)
Degree Days  
Heating Degree Days 6    
Growing Degree Days 9 (Base 50)    
Moisture  
Dew Point 54 °F    
Average Humidity 83    
Maximum Humidity 93    
Minimum Humidity 58    
Precipitation  
Precipitation 0.10 in - - ()
Sea Level Pressure  
Sea Level Pressure 30.04 in    
Wind  
Wind Speed 2 mph (WSW)    
Max Wind Speed 8 mph    
Max Gust Speed -    
Visibility 10 miles    
Events Rain    
Averages and records for this station are not official NWS values.
T = Trace of Precipitation, MM = Missing Value Source: NWS Daily Summary

Daily Weather History Graph

Daily Weather History Graph

Search for Another Location

Airport:

Trip Planner

Search our weather history database for the weather conditions in past years. The results will help you decide how hot, cold, wet, or windy it might be!

Date:

Astronomy

Jul. 23, 2013 Rise Set
Actual Time 4:43 AM AKDT 9:31 PM AKDT
Civil Twilight 3:48 AM AKDT 10:25 PM AKDT
Nautical Twilight 2:06 AM AKDT 12:04 AM AKDT
Astronomical Twilight Sun does not rise Sun does not rise
Moon 9:25 PM AKDT 6:31 AM AKDT
Length of Visible Light 18h 37m
Length of Day
16h 47m
Full, 98% of the Moon is Illuminated
Jul 23
Full
Jul 29
Last Quarter
Aug 6
New
Aug 14
First Quarter
Aug 20
Full

Hourly Weather History & Observations

Time (AKDT) Temp. Dew Point Humidity Pressure Visibility Wind Dir Wind Speed Gust Speed Precip Events Conditions
12:53 AM 54.0 °F 51.1 °F 90% 30.04 in 10.0 mi Calm Calm - N/A   Partly Cloudy
1:53 AM 54.0 °F 51.1 °F 90% 30.03 in 10.0 mi Calm Calm - N/A   Partly Cloudy
2:53 AM 54.0 °F 51.1 °F 90% 30.03 in 10.0 mi ESE 4.6 mph - N/A   Scattered Clouds
3:53 AM 54.0 °F 50.0 °F 86% 30.02 in 10.0 mi Calm Calm - N/A   Mostly Cloudy
4:53 AM 55.0 °F 52.0 °F 89% 30.03 in 10.0 mi Calm Calm - N/A   Overcast
5:53 AM 57.0 °F 52.0 °F 83% 30.04 in 10.0 mi Calm Calm - N/A   Overcast
6:53 AM 57.9 °F 54.0 °F 87% 30.04 in 10.0 mi Calm Calm - 0.00 in   Overcast
7:53 AM 59.0 °F 53.1 °F 81% 30.04 in 10.0 mi Calm Calm - N/A   Overcast
8:53 AM 59.0 °F 54.0 °F 83% 30.03 in 10.0 mi NNW 6.9 mph - N/A   Overcast
9:53 AM 61.0 °F 53.1 °F 75% 30.02 in 10.0 mi NNW 3.5 mph - N/A   Overcast
10:53 AM 60.1 °F 55.0 °F 83% 30.02 in 10.0 mi NW 3.5 mph - N/A   Overcast
11:53 AM 61.0 °F 55.0 °F 81% 30.03 in 10.0 mi NW 4.6 mph - N/A   Overcast
12:53 PM 64.9 °F 50.0 °F 58% 30.03 in 10.0 mi SE 6.9 mph - N/A   Overcast
1:53 PM 64.9 °F 52.0 °F 63% 30.03 in 10.0 mi SE 8.1 mph - 0.00 in   Overcast
2:53 PM 64.0 °F 54.0 °F 70% 30.04 in 10.0 mi NW 5.8 mph - N/A   Overcast
3:53 PM 64.9 °F 53.1 °F 65% 30.03 in 10.0 mi West 4.6 mph - N/A   Overcast
4:53 PM 64.0 °F 57.0 °F 78% 30.04 in 10.0 mi SSW 8.1 mph - N/A   Overcast
5:53 PM 61.0 °F 55.9 °F 83% 30.06 in 10.0 mi SW 8.1 mph - N/A   Overcast
6:53 PM 60.1 °F 57.0 °F 90% 30.06 in 9.0 mi SW 4.6 mph - 0.00 in Rain Light Rain
7:53 PM 59.0 °F 55.9 °F 90% 30.06 in 10.0 mi West 3.5 mph - 0.01 in   Overcast
8:53 PM 59.0 °F 55.9 °F 90% 30.06 in 10.0 mi Calm Calm - N/A   Overcast
9:53 PM 57.9 °F 55.9 °F 93% 30.06 in 10.0 mi SSW 3.5 mph - 0.02 in Rain Light Rain
10:53 PM 57.9 °F 55.0 °F 90% 30.07 in 9.0 mi Calm Calm - 0.07 in Rain Light Rain
11:33 PM 57.9 °F 55.9 °F 93% 30.07 in 10.0 mi Calm Calm - 0.00 in   Overcast
11:53 PM 57.9 °F 55.9 °F 93% 30.06 in 10.0 mi SSW 3.5 mph - 0.00 in   Overcast